LEMUR-2-SPECIAL-K (48273 NORAD) Tracking and Keplerian Element Data

This shows tracking and keplerian element data for the satellite.

Feedback or suggestion? Click here.




ElementValue
Catalog48273
NameLEMUR-2-SPECIAL-K
Epoch Orbit1425
Epoch Day215.11229194
Epoch Year2021
RAAN288.7115
Inclination97.7842
Eccentricity0.0004528
Argument of Perigee56.881
Mean Anonmoly303.284
Mean Motion14.85860311
Decay Rate4.92E-06
L11 48273U 21034F 21215.11229194 .00000492 00000-0 62522-4 0 9990
L22 48273 97.7842 288.7115 0004528 56.8810 303.2840 14.85860311 14251

Live tracking and technical data element details for LEMUR-2-SPECIAL-K (NORAD 48273). LEMUR-2-SPECIAL-K can be tracked NOW for your location showing map with azimuth and elevation plus other details from your city location.

Track the satellite on the map from your city or location and see movement details for azimuth, elevation, latitude, longitude, range, height, and movement on the map or in text.







IsCatalogInMostPopularTable: catalog: 48273, numindb: 29
Update: records affected: 1



GetName: 48273 LEMUR-2-SPECIAL-K

Hit Count: updated at: Tue, 03 Aug 2021 19:22:13 GMT